Regional Weather Roundup
Issued by NWS

Home | Current Version | Previous Version | Graphics & Text | Print | Product List | Glossary On
Versions: 1 2 3 4 5 6 7 8 9 10 11 12 13 14 15 16 17 18 19 20 21 22 23 24 25 26 27 28 29 30 31 32 33 34 35 36 37 38 39 40 41 42 43 44 45 46 47 48 49 50
000
ASUS43 KFSD 070110
RWRSD

WEATHER ROUNDUP FOR SOUTH DAKOTA
NATIONAL WEATHER SERVICE SIOUX FALLS SD
700 PM CST TUE DEC 06 2016

NOTE: "FAIR" INDICATES FEW OR NO CLOUDS BELOW 12,000 FEET WITH NO
SIGNIFICANT WEATHER AND/OR OBSTRUCTIONS TO VISIBILITY.


SDZ001>005-009-010-012>017-070200-
NORTHWEST AND NORTH CENTRAL SOUTH DAKOTA

CITY           SKY/WX    TMP DP  RH WIND       PRES   REMARKS
BUFFALO          N/A      6  -3  66 W26G36    29.98R WCI -16
FAITH            N/A      4  -1  80 NW20      30.05R WCI -17
MOBRIDGE       CLOUDY    10   0  63 NW30G44   29.99R WCI -12
$$

SDZ012>016-024>037-041>051-057-063-072>074-070200-
SOUTHWEST AND SOUTH CENTRAL SOUTH DAKOTA

CITY           SKY/WX    TMP DP  RH WIND       PRES   REMARKS
RAPID CTY ARPT CLEAR      8   0  69 N18       30.03R WCI -11
PIERRE         PTCLDY    11   3  70 NW31G38   30.05R WCI -11
CUSTER         CLOUDY     8  -9  45 N6        29.85R WCI  -2
ELLSWORTH AFB  CLEAR      9   0  67 N14       30.03R WCI  -8
PHILIP         CLEAR     10   0  63 NW21G31   30.10R WCI  -9
PINE RIDGE     CLOUDY     4   0  83 E6        30.02R WCI  -7
SPEARFISH      FAIR       9  -2  61 W15       30.01R WCI  -8
WINNER         FAIR      14   4  64 NW15      30.06R WCI  -1
$$

SDZ004>011-016>023-039-040-070200-
NORTHEAST SOUTH DAKOTA

CITY           SKY/WX    TMP DP  RH WIND       PRES   REMARKS
ABERDEEN       CLOUDY    12   3  67 NW28G37   29.92R WCI  -9
WATERTOWN      LGT SNOW  10   6  84 W21G32    29.86S FOG     WCI  -9
BROOKINGS      FLURRIES  11   5  77 W24G32    29.90R WCI  -9
SISSETON         N/A     15   8  73 NW29G41   29.79R WCI  -5
$$

SDZ017-020-022-023-036>040-048>070-070200-
SOUTHEAST SOUTH DAKOTA

CITY           SKY/WX    TMP DP  RH WIND       PRES   REMARKS
SIOUX FALLS    CLEAR     16   9  74 W22G32    29.96R WCI  -2
HURON          CLEAR     11   3  70 W24G35    30.00R WCI  -9
CHAMBERLAIN    PTCLDY    14   5  67 NW28G37   30.06S WCI  -6
MITCHELL       CLEAR     15   7  70 NW22      30.05R WCI  -3
YANKTON        PTCLDY    18   7  62 W23       30.04R WCI   0
$$

ABBREVIATIONS USED IN REMARKS
   TC - TEMPERATURE IN CELSIUS
  WCI - WIND CHILL INDEX
   HX - HEAT INDEX
  VSB - VISIBILITY




USA.gov is the U.S. government's official web portal to all federal, state and local government web resources and services.